• In Deutschland
  • Länderverzeichnis
  • Für 7 Tage
  • Wassertemperatur
  • Satellitenkarten
  • Wetterkarte
  • Widgets
  • user-avatar
    Anmelden

    Stündliche Wetter Lankaran

    Heute, 19 Januar, Freitag

    Zeit Temperatur Niederschläge Wind Luftdruck Luftfeuchtigkeit
    00:00 -2°C° 0 mm 5 m/S 626 mmHg 66%
    01:00 -2°C° 0 mm 5 m/S 626 mmHg 67%
    02:00 -2°C° 0 mm 5 m/S 625 mmHg 67%
    03:00 -2°C° 0 mm 5 m/S 625 mmHg 69%
    04:00 -2°C° 0 mm 4 m/S 625 mmHg 68%
    05:00 -2°C° 0 mm 4 m/S 625 mmHg 68%
    06:00 -2°C° 0 mm 4 m/S 625 mmHg 68%
    07:00 -1°C° 0 mm 4 m/S 626 mmHg 66%
    08:00 0°C° 0 mm 4 m/S 626 mmHg 64%
    09:00 0°C° 0 mm 4 m/S 627 mmHg 63%
    10:00 +3°C° 0 mm 4 m/S 627 mmHg 58%
    11:00 +4°C° 0 mm 4 m/S 627 mmHg 54%
    12:00 +5°C° 0 mm 4 m/S 627 mmHg 50%
    13:00 +5°C° 0 mm 4 m/S 627 mmHg 48%
    14:00 +5°C° 0 mm 4 m/S 627 mmHg 47%
    15:00 +5°C° 0 mm 4 m/S 627 mmHg 46%
    16:00 +4°C° 0 mm 4 m/S 627 mmHg 47%
    17:00 +3°C° 0 mm 3 m/S 627 mmHg 48%
    18:00 +1°C° 0 mm 3 m/S 627 mmHg 49%
    19:00 +2°C° 0 mm 2 m/S 627 mmHg 49%
    20:00 +2°C° 0 mm 2 m/S 627 mmHg 48%
    21:00 +2°C° 0 mm 2 m/S 626 mmHg 48%
    22:00 +2°C° 0 mm 2 m/S 627 mmHg 52%
    23:00 +2°C° 0 mm 2 m/S 627 mmHg 56%

    Morgen, 20 Januar, Samstag

    Zeit Temperatur Niederschläge Wind Luftdruck Luftfeuchtigkeit
    00:00 +2°C° 0 mm 2 m/S 627 mmHg 60%
    01:00 +1°C° 0 mm 2 m/S 628 mmHg 62%
    02:00 +1°C° 0 mm 2 m/S 628 mmHg 63%
    03:00 0°C° 0 mm 3 m/S 628 mmHg 65%
    04:00 -1°C° 0,1 mm 2 m/S 629 mmHg 67%
    05:00 -1°C° 0,1 mm 2 m/S 629 mmHg 69%
    06:00 -1°C° 0,1 mm 2 m/S 630 mmHg 71%
    07:00 +1°C° 0,2 mm 2 m/S 630 mmHg 71%
    08:00 +1°C° 0,2 mm 2 m/S 631 mmHg 71%
    09:00 +2°C° 0,2 mm 1 m/S 632 mmHg 71%
    10:00 +1°C° 0,2 mm 2 m/S 632 mmHg 71%
    11:00 +2°C° 0,2 mm 2 m/S 632 mmHg 71%
    12:00 +2°C° 0,2 mm 2 m/S 632 mmHg 72%
    13:00 +2°C° 0,2 mm 2 m/S 632 mmHg 74%
    14:00 +2°C° 0,2 mm 2 m/S 633 mmHg 76%
    15:00 +2°C° 0,2 mm 2 m/S 633 mmHg 78%
    16:00 +1°C° 0,2 mm 2 m/S 633 mmHg 80%
    17:00 -1°C° 0,2 mm 2 m/S 634 mmHg 82%
    18:00 -1°C° 0,2 mm 2 m/S 634 mmHg 84%
    19:00 -1°C° 0 mm 2 m/S 634 mmHg 82%
    20:00 -2°C° 0 mm 2 m/S 634 mmHg 79%
    21:00 -2°C° 0 mm 2 m/S 634 mmHg 77%
    22:00 -2°C° 0 mm 3 m/S 634 mmHg 73%
    23:00 -2°C° 0 mm 3 m/S 634 mmHg 69%

    übermorgen, 21 Januar, Sonntag

    Zeit Temperatur Niederschläge Wind Luftdruck Luftfeuchtigkeit
    00:00 -4°C° 0 mm 3 m/S 634 mmHg 65%
    01:00 -4°C° 0 mm 3 m/S 634 mmHg 63%
    02:00 -4°C° 0 mm 3 m/S 634 mmHg 60%
    03:00 -4°C° 0 mm 3 m/S 633 mmHg 58%
    04:00 -4°C° 0 mm 3 m/S 633 mmHg 59%
    05:00 -4°C° 0 mm 3 m/S 633 mmHg 59%
    06:00 -4°C° 0 mm 3 m/S 633 mmHg 60%
    07:00 -1°C° 0 mm 3 m/S 634 mmHg 57%
    08:00 0°C° 0 mm 3 m/S 634 mmHg 54%
    09:00 +1°C° 0 mm 3 m/S 634 mmHg 51%
    10:00 +2°C° 0 mm 3 m/S 634 mmHg 48%
    11:00 +4°C° 0 mm 4 m/S 634 mmHg 45%
    12:00 +5°C° 0 mm 4 m/S 634 mmHg 42%
    13:00 +5°C° 0 mm 4 m/S 633 mmHg 42%
    14:00 +5°C° 0 mm 4 m/S 633 mmHg 42%
    15:00 +6°C° 0 mm 4 m/S 633 mmHg 42%
    16:00 +4°C° 0 mm 3 m/S 633 mmHg 45%
    17:00 +2°C° 0 mm 3 m/S 632 mmHg 48%
    18:00 +1°C° 0 mm 3 m/S 632 mmHg 51%
    19:00 +1°C° 0 mm 3 m/S 632 mmHg 49%
    20:00 0°C° 0 mm 3 m/S 632 mmHg 47%
    21:00 +1°C° 0 mm 2 m/S 632 mmHg 45%
    22:00 +1°C° 0 mm 2 m/S 632 mmHg 45%
    23:00 +1°C° 0 mm 2 m/S 632 mmHg 44%

    22 Januar, Montag

    Zeit Temperatur Niederschläge Wind Luftdruck Luftfeuchtigkeit
    00:00 +1°C° 0 mm 2 m/S 632 mmHg 44%
    01:00 +1°C° 0 mm 2 m/S 632 mmHg 43%
    02:00 +1°C° 0 mm 2 m/S 631 mmHg 43%
    03:00 +1°C° 0 mm 2 m/S 631 mmHg 42%
    04:00 +1°C° 0 mm 2 m/S 631 mmHg 41%
    05:00 +1°C° 0 mm 2 m/S 631 mmHg 41%
    06:00 +1°C° 0 mm 2 m/S 630 mmHg 40%
    07:00 +2°C° 0 mm 2 m/S 631 mmHg 40%
    08:00 +3°C° 0 mm 2 m/S 631 mmHg 39%
    09:00 +4°C° 0 mm 2 m/S 631 mmHg 39%
    10:00 +5°C° 0 mm 3 m/S 630 mmHg 38%
    11:00 +7°C° 0 mm 3 m/S 630 mmHg 37%
    12:00 +7°C° 0 mm 4 m/S 630 mmHg 36%
    13:00 +7°C° 0 mm 4 m/S 629 mmHg 37%
    14:00 +7°C° 0 mm 4 m/S 629 mmHg 37%
    15:00 +7°C° 0 mm 4 m/S 628 mmHg 37%
    16:00 +5°C° 0 mm 3 m/S 628 mmHg 38%
    17:00 +4°C° 0 mm 3 m/S 627 mmHg 38%
    18:00 +2°C° 0 mm 3 m/S 627 mmHg 39%
    19:00 +2°C° 0 mm 3 m/S 627 mmHg 38%
    20:00 +1°C° 0 mm 3 m/S 626 mmHg 37%
    21:00 +1°C° 0 mm 3 m/S 626 mmHg 35%
    22:00 +1°C° 0 mm 3 m/S 626 mmHg 36%
    23:00 0°C° 0 mm 4 m/S 626 mmHg 37%

    23 Januar, Dienstag

    Zeit Temperatur Niederschläge Wind Luftdruck Luftfeuchtigkeit
    00:00 0°C° 0 mm 4 m/S 626 mmHg 38%
    01:00 -1°C° 0 mm 4 m/S 626 mmHg 39%
    02:00 -1°C° 0 mm 4 m/S 626 mmHg 40%
    03:00 -1°C° 0 mm 4 m/S 626 mmHg 41%
    04:00 -1°C° 0 mm 4 m/S 626 mmHg 44%
    05:00 -2°C° 0 mm 4 m/S 626 mmHg 46%
    06:00 -2°C° 0 mm 4 m/S 626 mmHg 49%
    07:00 -1°C° 0 mm 4 m/S 626 mmHg 48%
    08:00 0°C° 0 mm 4 m/S 627 mmHg 47%
    09:00 +1°C° 0 mm 4 m/S 627 mmHg 46%
    10:00 +4°C° 0 mm 4 m/S 627 mmHg 43%
    11:00 +5°C° 0 mm 5 m/S 627 mmHg 41%
    12:00 +6°C° 0 mm 5 m/S 627 mmHg 38%
    13:00 +6°C° 0 mm 5 m/S 627 mmHg 39%
    14:00 +6°C° 0 mm 4 m/S 627 mmHg 39%
    15:00 +6°C° 0 mm 4 m/S 626 mmHg 39%
    16:00 +5°C° 0 mm 3 m/S 626 mmHg 41%
    17:00 +3°C° 0 mm 3 m/S 626 mmHg 44%
    18:00 +3°C° 0 mm 2 m/S 626 mmHg 46%
    19:00 +3°C° 0 mm 2 m/S 626 mmHg 46%
    20:00 +3°C° 0 mm 2 m/S 627 mmHg 46%
    21:00 +3°C° 0 mm 2 m/S 627 mmHg 45%
    22:00 +2°C° 0 mm 2 m/S 627 mmHg 46%
    23:00 +2°C° 0 mm 2 m/S 627 mmHg 47%

    24 Januar, Mittwoch

    Zeit Temperatur Niederschläge Wind Luftdruck Luftfeuchtigkeit
    00:00 +2°C° 0 mm 2 m/S 627 mmHg 48%
    01:00 +2°C° 0,1 mm 2 m/S 627 mmHg 53%
    02:00 +1°C° 0,1 mm 2 m/S 626 mmHg 57%
    03:00 0°C° 0,1 mm 3 m/S 626 mmHg 62%
    04:00 0°C° 0,1 mm 3 m/S 627 mmHg 68%
    05:00 0°C° 0,1 mm 3 m/S 627 mmHg 74%
    06:00 -1°C° 0,1 mm 3 m/S 627 mmHg 80%
    07:00 0°C° 0,2 mm 3 m/S 628 mmHg 80%
    08:00 0°C° 0,2 mm 3 m/S 629 mmHg 80%
    09:00 0°C° 0,2 mm 3 m/S 629 mmHg 79%
    10:00 -1°C° 0,1 mm 4 m/S 629 mmHg 76%
    11:00 0°C° 0,1 mm 4 m/S 630 mmHg 72%
    12:00 0°C° 0,1 mm 4 m/S 630 mmHg 69%
    13:00 0°C° 0,1 mm 4 m/S 630 mmHg 69%
    14:00 0°C° 0,1 mm 4 m/S 630 mmHg 69%
    15:00 0°C° 0,1 mm 4 m/S 631 mmHg 69%
    16:00 0°C° 0 mm 3 m/S 631 mmHg 73%
    17:00 -1°C° 0 mm 3 m/S 631 mmHg 77%
    18:00 -1°C° 0 mm 3 m/S 632 mmHg 81%
    19:00 -2°C° 0 mm 3 m/S 632 mmHg 82%
    20:00 -2°C° 0 mm 3 m/S 632 mmHg 83%
    21:00 -2°C° 0 mm 2 m/S 632 mmHg 84%
    22:00 -2°C° 0 mm 2 m/S 633 mmHg 85%
    23:00 -2°C° 0 mm 2 m/S 633 mmHg 85%
    Mehr zeigen